[[{"header":{"parameterUnit":"m.s-1","parameterCategory":1,"la1":30.2991,"la2":30.254,"lo1":-89.0895,"lo2":-89.0444,"dy":0.0017,"dx":0.0017,"nx":28,"ny":28,"refTime":"2024-09-02T03:00:00:Z","depth":0,"parameterNumber":2,"parameterNumberName":"U-component_of_WINDS"},"data":[0,0,0,0,0,0,0,0,0,0,0,0,0,0,0,0,0,0,0,0,0,0,0,0,0,0,0,0,0,0,0,0,0,0,0,0,0,0,0,0,0,0,0,0,0,0,0,0,0,0,0,0,0,0,0,0,0,0,-1.3691,-1.3689,0,-1.3546,-1.3545,-1.3543,-1.3484,-1.3484,-1.3484,-1.3485,-1.3337,-1.3333,-1.3328,0,0,0,0,0,0,0,0,0,0,0,0,0,-1.3919,-1.3915,-1.3691,-1.3689,-1.3687,-1.3546,-1.3544,-1.3543,-1.3484,-1.3484,-1.3484,-1.3485,-1.3338,-1.3333,-1.3328,0,0,0,0,0,0,0,0,0,0,0,0,0,-1.3802,-1.3914,-1.3691,-1.3641,-1.3635,-1.3547,-1.3544,-1.3542,-1.3484,-1.3484,-1.3484,-1.3485,-1.334,-1.3334,-1.3327,-1.3278,0,0,-1.3308,-1.3305,0,0,0,0,0,0,0,0,-1.3808,-1.3793,-1.365,-1.3644,-1.3638,-1.3533,-1.3571,-1.3454,-1.3483,-1.3541,-1.3485,-1.3485,-1.3402,-1.339,-1.3362,-1.3271,-1.3265,-1.3307,-1.3303,-1.3301,-1.3299,0,0,0,0,0,0,0,-1.3817,-1.3799,-1.3634,-1.3648,-1.364,-1.3627,-1.361,-1.3548,-1.3471,-1.3536,-1.3531,-1.3515,-1.3398,-1.3368,-1.3358,-1.3263,-1.3307,-1.3302,-1.3298,-1.3295,-1.3128,-1.3127,0,0,0,0,0,0,-1.3833,-1.3807,-1.3638,-1.3629,-1.3726,-1.3622,-1.3604,-1.3566,-1.3471,-1.3457,-1.3515,-1.3513,-1.3379,-1.3366,-1.3353,-1.329,-1.3301,-1.3295,-1.3291,-1.3128,-1.3128,-1.3127,0,0,0,0,0,0,-1.3838,-1.3818,-1.3644,-1.3717,-1.3693,-1.3618,-1.3576,-1.3563,-1.3533,-1.3455,-1.3441,-1.3498,-1.3379,-1.3362,-1.3298,-1.3284,-1.3292,-1.3286,-1.3129,-1.3128,-1.3127,-1.3165,0,0,0,0,0,0,-1.3845,-1.3821,-1.38,-1.3717,-1.369,-1.3591,-1.3575,-1.356,-1.3522,-1.3518,-1.3436,-1.3422,-1.3378,-1.3308,-1.3292,-1.3276,-1.3281,-1.313,-1.3129,-1.3128,-1.3164,-1.3165,-1.3166,0,0,0,0,0,-1.3853,-1.3816,-1.38,-1.378,-1.3663,-1.359,-1.3575,-1.3524,-1.3521,-1.3501,-1.3452,-1.3425,-1.3289,-1.3302,-1.3283,-1.3265,-1.3131,-1.3129,-1.3128,-1.3164,-1.3165,-1.3166,0,0,0,0,0,0,-1.3899,-1.3804,-1.3785,-1.3719,-1.3664,-1.358,-1.3552,-1.3527,-1.347,-1.3469,-1.3409,-1.3391,-1.3332,-1.3292,-1.3308,-1.3214,-1.3208,-1.3203,-1.3242,-1.3242,-1.3243,-1.3253,-1.3276,0,0,0,0,0,-1.3902,-1.3851,-1.377,-1.3721,-1.3694,-1.3629,-1.3595,-1.3561,-1.3501,-1.3477,-1.3422,-1.3365,-1.3309,-1.3274,-1.3218,-1.3159,-1.3141,-1.3138,-1.3139,-1.314,-1.3136,-1.3103,-1.3101,-1.3122,-1.3122,-1.3122,0,0,-1.3907,-1.3849,-1.3819,-1.3729,-1.3681,-1.363,-1.3609,-1.3555,-1.3517,-1.3468,-1.3405,-1.3364,-1.3296,-1.3235,-1.3205,-1.32,-1.3126,-1.3138,-1.3139,-1.3134,-1.3101,-1.31,-1.3098,-1.3121,-1.3121,-1.3122,0,0,-1.3889,-1.384,-1.3794,-1.3747,-1.3676,-1.3634,-1.3623,-1.3544,-1.3515,-1.3451,-1.3414,-1.3369,-1.3274,-1.3228,-1.3192,-1.3161,-1.3135,-1.3145,-1.3148,-1.3118,-1.3116,-1.3114,-1.3104,-1.3101,-1.3142,-1.3142,-1.3142,0,-1.3904,-1.3825,-1.3773,-1.3722,-1.3684,-1.3639,-1.3593,-1.3551,-1.3465,-1.344,-1.3436,-1.3318,-1.3269,-1.3197,-1.3191,-1.3163,-1.315,-1.3153,-1.312,-1.3118,-1.3116,-1.3105,-1.3101,-1.3143,-1.3143,-1.3143,-1.3143,0,-1.3847,-1.3793,-1.3764,-1.3684,-1.3643,-1.3594,-1.3537,-1.3501,-1.3473,-1.3431,-1.3368,-1.3308,-1.3241,-1.3222,-1.3192,-1.3147,-1.3146,-1.3132,-1.3124,-1.3116,-1.3105,-1.3101,-1.3146,-1.3145,-1.3145,-1.3144,0,0,-1.3851,-1.3745,-1.3735,-1.3699,-1.362,-1.3577,-1.3528,-1.3463,-1.3434,-1.3378,-1.3336,-1.3259,-1.3246,-1.3206,-1.3172,-1.3145,-1.3126,-1.3134,-1.3132,-1.3135,-1.3073,-1.3083,-1.3079,-1.3109,-1.3108,-1.3108,-1.3079,0,-1.3822,-1.3731,-1.3685,-1.3614,-1.3565,-1.3524,-1.3481,-1.3429,-1.339,-1.3343,-1.33,-1.3246,-1.3234,-1.3209,-1.3181,-1.3134,-1.3113,-1.3136,-1.307,-1.3068,-1.3087,-1.3074,-1.3083,-1.3059,-1.3074,-1.3073,-1.3073,0,-1.3775,-1.3721,-1.3645,-1.3574,-1.3551,-1.3514,-1.3451,-1.3407,-1.3348,-1.3321,-1.3278,-1.3245,-1.3194,-1.3192,-1.312,-1.3137,-1.3108,-1.3082,-1.308,-1.307,-1.3069,-1.3064,-1.305,-1.3046,-1.3066,-1.3066,-1.3067,0,-1.3786,-1.3694,-1.3637,-1.3608,-1.3523,-1.3498,-1.3461,-1.3402,-1.3367,-1.3313,-1.329,-1.3231,-1.3199,-1.3155,-1.3107,-1.311,-1.3041,-1.3035,-1.3018,-1.302,-1.3004,-1.3005,-1.2985,-1.2987,-1.2987,-1.2987,-1.2987,0,-1.3758,-1.3714,-1.3641,-1.3606,-1.3556,-1.3505,-1.3457,-1.3417,-1.3366,-1.3324,-1.3286,-1.3247,-1.3188,-1.3142,-1.3105,-1.3053,-1.3038,-1.3016,-1.3007,-1.3019,-1.3022,-1.2998,-1.2998,-1.2986,-1.2987,-1.2987,-1.2987,0,-1.3761,-1.371,-1.3646,-1.3572,-1.3552,-1.3519,-1.3456,-1.3421,-1.3382,-1.3329,-1.3314,-1.3252,-1.3196,-1.3146,-1.3072,-1.3048,-1.2994,-1.2983,-1.3014,-1.3009,-1.2995,-1.2997,-1.2957,-1.295,-1.2959,-1.2959,-1.2959,0,-1.3745,-1.371,-1.3633,-1.3602,-1.3567,-1.3517,-1.3482,-1.3431,-1.3396,-1.3328,-1.3302,-1.3244,-1.3195,-1.3109,-1.3058,-1.3002,-1.2988,-1.2979,-1.2979,-1.2994,-1.2988,-1.299,-1.2987,-1.2979,-1.2979,-1.2979,-1.2979,0,-1.3724,-1.3702,-1.3651,-1.3593,-1.3552,-1.3503,-1.3454,-1.3431,-1.3372,-1.3334,-1.3277,-1.324,-1.3166,-1.3109,-1.3048,-1.3012,-1.2986,-1.298,-1.2973,-1.2984,-1.3004,-1.2993,-1.3015,-1.298,-1.298,-1.298,-1.298,-1.298,-1.3716,-1.3684,-1.3626,-1.3572,-1.353,-1.3485,-1.345,-1.3407,-1.3358,-1.3294,-1.3268,-1.3211,-1.3156,-1.3071,-1.3036,-1.2991,-1.2985,-1.2976,-1.2973,-1.2971,-1.2974,-1.3013,-1.298,-1.298,-1.298,-1.298,-1.2979,0,-1.3693,-1.3654,-1.3605,-1.3538,-1.3496,-1.3477,-1.3422,-1.3388,-1.3338,-1.3289,-1.3242,-1.3178,-1.3124,-1.3071,-1.3014,-1.2989,-1.2976,-1.2976,-1.2976,-1.2969,-1.2981,-1.2993,-1.2987,-1.2987,-1.2987,-1.2988,-1.2988,-1.2988,-1.3676,-1.3621,-1.3592,-1.3517,-1.3478,-1.3422,-1.3392,-1.3352,-1.3312,-1.3243,-1.3198,-1.3164,-1.3113,-1.3053,-1.3003,-1.2989,-1.297,-1.2973,-1.2956,-1.2968,-1.2968,-1.2967,-1.2978,-1.2969,-1.2969,-1.2946,-1.2946,-1.2946]},{"header":{"parameterUnit":"m.s-1","parameterCategory":1,"la1":30.2991,"la2":30.254,"lo1":-89.0895,"lo2":-89.0444,"dy":0.0017,"dx":0.0017,"nx":28,"ny":28,"refTime":"2024-09-02T03:00:00:Z","depth":0,"parameterNumber":3,"parameterNumberName":"V-component_of_WINDS"},"data":[0,0,0,0,0,0,0,0,0,0,0,0,0,0,0,0,0,0,0,0,0,0,0,0,0,0,0,0,0,0,0,0,0,0,0,0,0,0,0,0,0,0,0,0,0,0,0,0,0,0,0,0,0,0,0,0,0,0,2.8262,2.8262,0,2.828,2.828,2.828,2.832,2.8321,2.8322,2.8322,2.8338,2.8337,2.8337,0,0,0,0,0,0,0,0,0,0,0,0,0,2.826,2.826,2.8262,2.8262,2.8262,2.8279,2.828,2.828,2.832,2.8321,2.8322,2.8323,2.8338,2.8337,2.8337,0,0,0,0,0,0,0,0,0,0,0,0,0,2.8268,2.826,2.8262,2.8284,2.8286,2.8279,2.828,2.828,2.8319,2.8321,2.8322,2.8323,2.8338,2.8338,2.8337,2.8309,0,0,2.8335,2.8335,0,0,0,0,0,0,0,0,2.8267,2.8268,2.8281,2.8283,2.8285,2.8299,2.8285,2.829,2.8319,2.8307,2.8322,2.8324,2.8324,2.8324,2.8325,2.831,2.831,2.8335,2.8335,2.8335,2.8335,0,0,0,0,0,0,0,2.8267,2.8267,2.8269,2.8281,2.8284,2.8293,2.8295,2.8286,2.8308,2.8308,2.8311,2.8313,2.8325,2.8325,2.8326,2.831,2.8335,2.8335,2.8334,2.8334,2.8273,2.8271,0,0,0,0,0,0,2.8263,2.8266,2.8268,2.8269,2.8279,2.8292,2.8294,2.8293,2.8308,2.8312,2.8312,2.8314,2.8326,2.8326,2.8326,2.8294,2.8335,2.8334,2.8334,2.8274,2.8272,2.8271,0,0,0,0,0,0,2.8263,2.8263,2.8268,2.8269,2.827,2.829,2.8289,2.8293,2.8293,2.8311,2.8315,2.8308,2.8327,2.8327,2.8313,2.8295,2.8334,2.8334,2.8275,2.8273,2.8272,2.8229,0,0,0,0,0,0,2.8263,2.8263,2.8253,2.8268,2.827,2.8254,2.8288,2.8292,2.8292,2.8296,2.8309,2.8312,2.8328,2.8314,2.8312,2.8295,2.8333,2.8277,2.8275,2.8272,2.8232,2.8226,2.8221,0,0,0,0,0,2.8263,2.8239,2.8252,2.8252,2.8258,2.8253,2.8254,2.8274,2.8291,2.828,2.8292,2.8311,2.8297,2.8312,2.8311,2.8293,2.8278,2.8275,2.8272,2.8235,2.8227,2.8221,0,0,0,0,0,0,2.822,2.8242,2.8256,2.8237,2.8243,2.826,2.8248,2.8265,2.8266,2.8269,2.8293,2.8295,2.8278,2.8284,2.83,2.8266,2.8291,2.8288,2.8263,2.8256,2.825,2.8248,2.8333,0,0,0,0,0,2.8209,2.8204,2.8223,2.8205,2.8207,2.8227,2.8226,2.824,2.8247,2.825,2.826,2.8265,2.8262,2.8259,2.8257,2.8234,2.8237,2.8221,2.8215,2.821,2.8207,2.8194,2.8187,2.8261,2.8261,2.8261,0,0,2.8185,2.8196,2.8192,2.8197,2.8203,2.8197,2.8229,2.8221,2.8216,2.8248,2.8236,2.8243,2.8251,2.8232,2.8224,2.8236,2.8187,2.8207,2.8203,2.8202,2.8191,2.8184,2.8177,2.8259,2.826,2.826,0,0,2.8138,2.8147,2.8133,2.8138,2.8148,2.8161,2.8158,2.8172,2.8179,2.8167,2.8191,2.8185,2.8179,2.8184,2.8185,2.814,2.8158,2.8139,2.8108,2.8096,2.809,2.8085,2.8068,2.8062,2.8136,2.8136,2.8136,0,2.8107,2.81,2.8123,2.8114,2.8115,2.8144,2.8129,2.8134,2.8142,2.8141,2.8156,2.8149,2.8156,2.8138,2.8128,2.8128,2.8124,2.8137,2.8089,2.8084,2.808,2.8064,2.8058,2.8133,2.8133,2.8134,2.8134,0,2.8061,2.8055,2.8043,2.805,2.805,2.8038,2.8058,2.8055,2.807,2.8082,2.8069,2.8078,2.8079,2.8076,2.809,2.806,2.8067,2.8085,2.811,2.807,2.8056,2.805,2.813,2.8131,2.8131,2.8132,0,0,2.7987,2.8009,2.8003,2.8007,2.802,2.8016,2.8005,2.8007,2.8003,2.8008,2.7999,2.7993,2.801,2.8011,2.8026,2.8015,2.7979,2.8035,2.8035,2.8023,2.7946,2.7932,2.7925,2.7991,2.799,2.7989,2.7945,0,2.7943,2.7927,2.7947,2.7926,2.792,2.7949,2.7939,2.7946,2.7956,2.7953,2.7964,2.796,2.7982,2.7983,2.7974,2.7985,2.7963,2.7989,2.7982,2.7981,2.7978,2.7917,2.7903,2.786,2.7939,2.7939,2.7938,0,2.789,2.7893,2.7871,2.7885,2.7884,2.7875,2.7878,2.7875,2.7882,2.7891,2.7892,2.7911,2.79,2.7925,2.7911,2.7927,2.7926,2.7931,2.793,2.7929,2.7957,2.7914,2.7847,2.7841,2.793,2.793,2.7931,0,2.7837,2.7836,2.7823,2.7825,2.7842,2.7835,2.7841,2.7851,2.785,2.7852,2.7852,2.7853,2.7853,2.7853,2.787,2.7887,2.7853,2.788,2.7859,2.7859,2.785,2.785,2.7781,2.785,2.785,2.785,2.785,0,2.7786,2.7771,2.78,2.7791,2.7776,2.7799,2.7783,2.7792,2.78,2.7793,2.7818,2.7811,2.7835,2.783,2.7844,2.783,2.783,2.7835,2.7839,2.7833,2.7832,2.7832,2.7835,2.7849,2.7849,2.7849,2.785,0,2.7725,2.7743,2.7731,2.7748,2.7752,2.7739,2.7754,2.7746,2.7759,2.775,2.7749,2.7768,2.7765,2.7782,2.7781,2.779,2.7769,2.7778,2.7766,2.7769,2.7747,2.7748,2.7675,2.7666,2.7741,2.774,2.7739,0,2.769,2.768,2.7696,2.7694,2.7699,2.7695,2.7695,2.7717,2.7716,2.7724,2.7716,2.7714,2.7714,2.7706,2.7719,2.7718,2.7727,2.7701,2.7727,2.7721,2.7726,2.7726,2.7725,2.7696,2.7695,2.7694,2.7693,0,2.7627,2.7637,2.7636,2.7638,2.7638,2.764,2.7645,2.7641,2.7665,2.7663,2.7659,2.7659,2.7659,2.7656,2.7658,2.7664,2.7682,2.7685,2.768,2.7674,2.7667,2.767,2.7751,2.7687,2.7687,2.7688,2.7688,2.7688,2.7578,2.757,2.758,2.7578,2.7584,2.7588,2.7582,2.7594,2.7592,2.7593,2.7606,2.76,2.7608,2.7613,2.7617,2.7612,2.7624,2.7617,2.7615,2.7613,2.7609,2.7669,2.7613,2.7613,2.7613,2.7613,2.7613,0,2.7515,2.7523,2.7522,2.7527,2.7526,2.7544,2.755,2.7547,2.7542,2.7548,2.7548,2.7544,2.7542,2.7555,2.7554,2.7548,2.7556,2.7547,2.7547,2.7548,2.7599,2.7603,2.754,2.754,2.754,2.754,2.754,2.754,2.7483,2.747,2.7481,2.7471,2.7479,2.7475,2.7476,2.7479,2.7484,2.7479,2.7478,2.7487,2.7496,2.7496,2.7495,2.7499,2.7497,2.7485,2.7491,2.7538,2.7545,2.7552,2.7556,2.7484,2.7484,2.7441,2.7441,2.7441]}]]